Simultaneous Nadir Overpasses (SNOs) Predictions

Prediction of SNOs between GOES-15 and METOP-A Satellite Orbit:

Table of predicted SNOs for the next 14.0 days since TLE Epoch: 9/13/2019
Index Date Time (GOES-15) GOES-15 Lat,Lon METOP-A Lat,Lon Distance(km) Time Diff (sec)
1 09/14/2019 05:35:57 0.20,-128.10 -0.08,-129.33 140.43 80
2 09/15/2019 05:17:58 0.18,-128.07 0.98,-124.34 424.59 80
3 09/16/2019 17:34:11 -0.21,-128.08 0.01,-128.93 97.54 80
4 09/17/2019 17:16:13 -0.19,-128.06 -1.11,-123.96 467.58 80
5 09/19/2019 05:32:34 0.21,-127.96 0.08,-128.58 70.55 80
6 09/20/2019 05:14:35 0.19,-127.93 1.15,-123.59 493.71 80
7 09/21/2019 17:30:48 -0.22,-127.93 -0.15,-128.19 30.09 80
8 09/24/2019 05:29:10 0.22,-127.78 0.19,-127.82 5.62 80
9 09/26/2019 17:30:05 -0.24,-127.72 -0.32,-127.44 32.82 80




NCC Satellite Simultaneous Nadir Overpasses (SNOs) Prediction Service
